Regional Weather Roundup
Issued by NWS Mobile, AL

Home | Current Version | Previous Version | Text Only | Print | Product List | Glossary On
Versions: 1 2 3 4 5 6 7 8 9 10 11 12 13 14 15 16 17 18 19 20 21 22 23 24 25 26 27 28 29 30 31 32 33 34 35 36 37 38 39 40 41 42 43 44 45 46 47 48 49 50
000
ASUS44 KMOB 292217
RWRMOB
REGIONAL WEATHER ROUNDUP
NATIONAL WEATHER SERVICE MOBILE AL
500 PM CDT WED JUL 29 2015

ALZ061>064-292300-
COASTAL ALABAMA


CITY           SKY/WX    TMP DP  RH WIND       PRES   REMARKS
MOBILE REG APT CLOUDY    81  76  84 CALM      29.95F
BROOKLEY FIELD CLOUDY    86  75  69 W3        29.96F HX  95
GULF SHORES    CLOUDY    78  76  93 E6        29.95F THUNDER

$$

ALZ051>060-292300-
INTERIOR SOUTHWEST AND SOUTH CENTRAL ALABAMA


CITY           SKY/WX    TMP DP  RH WIND       PRES   REMARKS
ANDALUSIA/OPP  CLOUDY    81  74  79 CALM      29.95S
EVERGREEN      CLOUDY    91  74  57 VRB7      29.96R HX 100
FLORALA        MOCLDY    76  74  93 CALM      29.96F THUNDER
GREENVILLE     FAIR      86  73  65 N6        29.96R

$$

FLZ001>006-292300-
WESTERN FLORIDA PANHANDLE


CITY           SKY/WX    TMP DP  RH WIND       PRES   REMARKS
CRESTVIEW      MOSUNNY   90  74  59 NE13G20   29.98R THUNDER HX  99
DESTIN         PTSUNNY   90  75  61 CALM      29.93S HX 100
DUKE FIELD     PTSUNNY   93  72  50 SW5       29.92F HX 100
MARY ESTHER    NOT AVBL
MILTON         CLOUDY    84  76  76 CALM      29.96R THUNDER
PENSACOLA      CLOUDY    80  76  87 SW8       29.95F
NAS PENSACOLA  CLOUDY    78  74  87 SW7       29.95F
VALPARAISO     PTSUNNY   86  76  71 NW3       29.93S HX  96

$$

...MARINE OBSERVATIONS...

STATION/POSITION TIME  SKY/WX   TEMP    WIND        PRES    VSBY
                                AIR SEA DIR/SP/G
                 (UTC)          (F)     (DEG/KT/KT) (MB)    (MI)
PASCAGOULA       2100            85                 1014.7
PETIT BOIS ISL   2100            85                 1015.2
E DAUPHIN ISLAND 2200            86      CALM  /  1 1013.9F
MIDDLE BAY LIGHT 2100            86      30/  8     1014.2R
USCG MOBILE BAY  2100            86 85              1013.8
STATE DOCKS      2100            89 86              1014.6
MEAHER PARK      2200            85     140/  3     1013.2F
12 S ORANGE BCH  2150            82 85   30/ 10/ 14 1013.9R
WVE H/P(F/S)=  1/ 5

PENSACOLA BAY    2100            83 86              1014.7
64 S DAUPHIN ISL 2150            88 93  250/  8/ 10 1014.8F
WVE H/P(F/S)=  1/ 4

67 S FORT MORGAN 2130            88     270/  4     1014.9R
115 SE PENSACOLA 2150            87 88  270/ 10/ 12 1014.4R
WVE H/P(F/S)=  2/ 4

MID GULF/42001   2150            83 86  320/  6/  8 1017.0F
WVE H/P(F/S)=  1/ 3

EAST GULF/42003  2150            81 85  250/  8/ 12 1015.2F
WVE H/P(F/S)=  1/ 8


$$

...NEARBY LOCATIONS

CITY           SKY/WX    TMP DP  RH WIND       PRES   REMARKS
GULFPORT       CLOUDY    82  72  71 S8        29.95R THUNDER
BILOXI         CLOUDY    79  75  89 SW12      29.95F
PASCAGOULA     CLOUDY    83  78  85 SW3       29.95F
HATTIESBURG    PTSUNNY   93  79  63 VRB3      29.94F HX 110
LAUREL         MOSUNNY   82 N/A N/A NE9G20    29.97S
MERIDIAN       CLOUDY    89  74  60 CALM      29.98S HX  98
MERIDIAN NAS   CLOUDY    84  77  79 NE5       29.99R
MONTGOMERY     CLOUDY    84  77  79 SE3       29.94S
MAXWELL AFB    CLOUDY    85  75  71 SE2       29.92F
TROY           CLOUDY    82  75  79 W5        29.96R
FORT RUCKER    CLOUDY    85  78  80 W6        29.93R HX  96
DALEVILLE      NOT AVBL
DOTHAN         PTSUNNY   86  76  71 W5        29.97R HX  96

$$

...OTHER SURROUNDING LOCATIONS...

CITY           SKY/WX    TMP DP  RH WIND       PRES   REMARKS
BIRMINGHAM     CLOUDY    80  76  87 CALM      30.01S
TUSCALOOSA     CLOUDY    78  76  93 NW3       29.98F FOG
COLUMBUS GA    PTSUNNY   91  69  48 NW21G32   29.90S HX  96
PANAMA CITY    NOT AVBL
TALLAHASSEE    CLOUDY    95  75  52 NE5       29.90R HX 107
BATON ROUGE    MOSUNNY   96  75  50 VRB6      29.95S HX 108
NEW ORLEANS    MOSUNNY   94  74  52 NW16G22   29.95S HX 104
SLIDELL        PTSUNNY   94  79  61 SW7       29.93F HX 111
JACKSON        MOSUNNY   99  69  37 N16       29.96F HX 105
MCCOMB         PTSUNNY   86  77  74 W7        29.96F HX  97

$$

...SURROUNDING MARINE OBSERVATIONS...

STATION/POSITION TIME  SKY/WX   TEMP    WIND        PRES    VSBY
                                AIR SEA DIR/SP/G
                 (UTC)          (F)     (DEG/KT/KT) (MB)    (MI)
WAVELAND         2100            91 91              1014.4
PASCAGOULA RGN A 2100            87                 1014.0
PASCAGOULA PORT  2100               90                N/A
GRAND ISLE       2100            90 90              1015.1
SOUTHWEST PASS   2200            89     210/  2/  2 1015.6R
PILOT STATION E  2100            99 87              1015.5
SHELL BEACH      2100            94 89              1013.8
PANAMA CITY      2100            88 88              1012.9
APALACHICOLA     2100            81 89              1013.3
TYNDALL TOWER C  2200            86     340/  8/  9 1013.6R
S APLCHCLA/42036 2150            80 86  150/ 21/ 25 1014.0R
WVE H/P(F/S)=  2/ 5


$$




USA.gov is the U.S. government's official web portal to all federal, state and local government web resources and services.